TimeCDT,TemperatureF,Dew PointF,Humidity,Sea Level PressureIn,VisibilityMPH,Wind Direction,Wind SpeedMPH,Gust SpeedMPH,PrecipitationIn,Events,Conditions,WindDirDegrees,DateUTC
12:06 AM,50.0,48.2,94,29.78,10.0,NNW,17.3,-,0.00,Rain,Light Rain,330,2013-05-22 05:06:00
12:14 AM,50.0,48.2,94,29.78,10.0,NW,17.3,-,0.00,Rain,Light Rain,320,2013-05-22 05:14:00
12:53 AM,50.0,48.0,93,29.78,10.0,NNW,17.3,-,0.00,,Overcast,330,2013-05-22 05:53:00
1:53 AM,50.0,48.0,93,29.78,10.0,NNW,15.0,-,0.00,,Overcast,340,2013-05-22 06:53:00
2:53 AM,48.9,46.9,93,29.79,5.0,NNW,17.3,-,N/A,,Overcast,340,2013-05-22 07:53:00
3:18 AM,48.2,48.2,100,29.79,2.5,NNW,13.8,-,0.00,Rain,Light Rain,340,2013-05-22 08:18:00
3:44 AM,48.2,48.2,100,29.79,7.0,NNW,12.7,-,0.00,Rain,Light Rain,340,2013-05-22 08:44:00
3:53 AM,48.9,48.0,97,29.80,6.0,NNW,13.8,-,0.00,Rain,Light Rain,330,2013-05-22 08:53:00
4:53 AM,48.9,46.9,93,29.81,10.0,NNW,11.5,-,0.00,Rain,Light Rain,330,2013-05-22 09:53:00
5:09 AM,48.2,46.4,93,29.80,8.0,NNW,11.5,-,0.00,Rain,Light Rain,330,2013-05-22 10:09:00
5:43 AM,48.2,46.4,93,29.80,8.0,NNW,12.7,-,0.00,Rain,Light Rain,340,2013-05-22 10:43:00
5:53 AM,48.9,46.9,93,29.82,7.0,NNW,12.7,-,0.00,Rain,Light Rain,330,2013-05-22 10:53:00
6:09 AM,48.2,46.4,93,29.81,6.0,NNW,12.7,-,0.00,Rain,Light Rain,340,2013-05-22 11:09:00
6:53 AM,48.9,46.0,90,29.83,10.0,NNW,13.8,-,0.00,Rain,Light Rain,340,2013-05-22 11:53:00
7:53 AM,48.9,46.9,93,29.83,10.0,NNW,13.8,-,0.00,,Overcast,340,2013-05-22 12:53:00
8:53 AM,50.0,46.9,89,29.84,10.0,NNW,16.1,21.9,0.00,Rain,Light Rain,340,2013-05-22 13:53:00
9:26 AM,51.8,48.2,88,29.84,9.0,NNW,12.7,-,0.00,Rain,Light Rain,340,2013-05-22 14:26:00
9:47 AM,50.0,48.2,94,29.84,3.0,North,13.8,-,0.00,Rain,Light Rain,360,2013-05-22 14:47:00
9:53 AM,50.0,46.9,89,29.86,1.8,North,12.7,-,0.00,,Overcast,360,2013-05-22 14:53:00
10:02 AM,50.0,48.2,94,29.85,3.0,North,12.7,-,0.00,Rain,Light Rain,350,2013-05-22 15:02:00
10:53 AM,53.1,48.9,86,29.87,10.0,North,15.0,-,0.00,,Overcast,10,2013-05-22 15:53:00
11:18 AM,51.8,48.2,88,29.86,10.0,North,15.0,-,0.00,,Overcast,350,2013-05-22 16:18:00
11:28 AM,53.6,46.4,77,29.86,10.0,North,16.1,23.0,0.00,Rain,Light Rain,360,2013-05-22 16:28:00
11:53 AM,52.0,48.0,86,29.88,9.0,NNW,16.1,23.0,0.00,Rain,Light Rain,340,2013-05-22 16:53:00
12:53 PM,52.0,48.0,86,29.89,10.0,NNW,13.8,-,0.00,,Overcast,340,2013-05-22 17:53:00
1:53 PM,53.1,46.9,80,29.91,10.0,North,18.4,25.3,0.00,Rain,Light Rain,350,2013-05-22 18:53:00
2:53 PM,54.0,48.0,80,29.92,10.0,North,15.0,-,0.00,,Overcast,360,2013-05-22 19:53:00
3:00 PM,55.4,48.2,77,29.91,10.0,North,13.8,-,N/A,,Overcast,350,2013-05-22 20:00:00
3:09 PM,53.6,48.2,82,29.91,10.0,NW,11.5,-,N/A,,Overcast,320,2013-05-22 20:09:00
3:53 PM,54.0,48.9,83,29.93,9.0,North,16.1,-,0.00,,Overcast,350,2013-05-22 20:53:00
4:09 PM,53.6,51.8,94,29.92,8.0,NNW,13.8,-,0.00,Rain,Light Rain,340,2013-05-22 21:09:00
4:16 PM,53.6,50.0,88,29.92,10.0,NNW,16.1,-,0.00,,Overcast,340,2013-05-22 21:16:00
4:20 PM,53.6,48.2,82,29.92,10.0,North,16.1,-,0.00,,Overcast,350,2013-05-22 21:20:00
4:53 PM,55.0,48.9,80,29.94,10.0,North,17.3,-,0.00,,Overcast,350,2013-05-22 21:53:00
5:21 PM,53.6,50.0,88,29.93,5.0,NNW,18.4,23.0,0.00,Rain,Light Rain,340,2013-05-22 22:21:00
5:53 PM,53.1,50.0,89,29.96,10.0,NNW,15.0,-,0.00,Rain,Light Rain,340,2013-05-22 22:53:00
6:53 PM,54.0,51.1,90,29.98,4.0,North,10.4,-,0.00,Rain,Light Rain,10,2013-05-22 23:53:00
7:53 PM,54.0,51.1,90,30.00,10.0,NNE,9.2,-,0.00,,Overcast,30,2013-05-23 00:53:00
8:53 PM,54.0,48.9,83,30.02,10.0,North,11.5,-,N/A,,Overcast,10,2013-05-23 01:53:00
9:20 PM,53.6,48.2,82,30.02,10.0,NNE,11.5,-,N/A,,Overcast,20,2013-05-23 02:20:00
9:53 PM,53.1,46.9,80,30.05,10.0,NE,13.8,23.0,N/A,,Overcast,50,2013-05-23 02:53:00
10:04 PM,53.6,46.4,77,30.05,10.0,NE,18.4,26.5,N/A,,Overcast,50,2013-05-23 03:04:00
10:53 PM,51.1,46.0,83,30.08,10.0,ENE,5.8,-,N/A,,Clear,60,2013-05-23 03:53:00
11:53 PM,50.0,45.0,83,30.10,10.0,NE,4.6,-,N/A,,Clear,40,2013-05-23 04:53:00